Regional Weather Roundup
Issued by NWS

Home | Current Version | Previous Version | Graphics & Text | Print | Product List | Glossary On
Versions: 1 2 3 4 5 6 7 8 9 10 11 12 13 14 15 16 17 18 19 20 21 22 23 24 25 26 27 28 29 30 31 32 33 34 35 36 37 38 39 40 41 42 43 44 45 46 47 48 49 50
217
ASUS44 KMEG 301710
RWRTN
TENNESSEE HOURLY STATE WEATHER ROUNDUP
NATIONAL WEATHER SERVICE MEMPHIS TN
1200 PM CDT TUE AUG 30 2016

TNZ002-004-019-021-049-052-054-088>092-301800-
WEST TENNESSEE

CITY           SKY/WX    TMP DP  RH WIND       PRES   REMARKS
MEMPHIS INTL   MOSUNNY   93  68  43 CALM      30.07F HX  97
NWS MEMPHIS      N/A     90 N/A N/A MISG        N/A
JACKSON        SUNNY     91  71  51 CALM      30.08F HX  97
DYERSBURG      SUNNY     90  75  62 MISG      30.07F HX 100
UNION CITY     SUNNY     88  75  66 NW3       30.08S HX  97
PARIS          SUNNY     88  75  66 E3        30.10F HX  97
LEXINGTON      SUNNY     90  72  55 SE5       30.09S HX  96
$$

TNZ008-025-027-028-033-062-065-066-301800-
NORTH MIDDLE TENNESSEE

CITY           SKY/WX    TMP DP  RH WIND       PRES   REMARKS
NASHVILLE      SUNNY     90  68  48 CALM      30.09F HX  93
CLARKSVILLE    SUNNY     88  71  57 CALM      30.09F HX  94
SMYRNA         SUNNY     88  66  48 MISG      30.11F HX  90
COOKEVILLE     SUNNY     91  68  46 CALM      30.12S HX  95
CROSSVILLE     PTSUNNY   84  66  54 VRB3      30.18F
$$

TNZ061-075-076-078-094-096-097-301800-
SOUTH MIDDLE TENNESSEE

CITY           SKY/WX    TMP DP  RH WIND       PRES   REMARKS
FAYETTEVILLE   SUNNY     86  66  51 CALM      30.12S
TULLAHOMA      SUNNY     88  61  40 SE6       30.14S
WINCHESTER     SUNNY     88  64  45 SE6       30.12F
MCMINNVILLE    SUNNY     90  68  48 VRB5      30.13S HX  93
COLUMBIA       SUNNY     90  72  55 VRB3      30.09F HX  96
SHELBYVILLE    SUNNY     91  70  49 CALM      30.11F HX  97
$$

TNZ017-018-042-046-047-301800-
NORTHEAST TENNESSEE

CITY           SKY/WX    TMP DP  RH WIND       PRES   REMARKS
TRI CITIES     MOSUNNY   87  66  49 E6        30.16F
ELIZABETHTON   SUNNY     86  66  51 E8        30.15F
$$

TNZ012-013-036-069-073-074-301800-
CENTRAL EAST TENNESSEE

CITY           SKY/WX    TMP DP  RH WIND       PRES   REMARKS
KNOXVILLE      MOSUNNY   88  65  46 W6        30.11F HX  90
OAK RIDGE      SUNNY     87  67  51 VRB3      30.13F HX  90
GATLINBURG       N/A     88  64  45 E6        30.11F
MORRISTOWN     SUNNY     88  66  48 VRB5      30.13F HX  90
$$

TNZ083-085-099-301800-
SOUTHEAST TENNESSEE

CITY           SKY/WX    TMP DP  RH WIND       PRES   REMARKS
CHATTANOOGA    MOSUNNY   89  62  40 VRB3      30.11F
$$

SKY/WX REPORTED AS FAIR MEANS FEW OR NO CLOUDS BELOW
12 THOUSAND FEET.





USA.gov is the U.S. government's official web portal to all federal, state and local government web resources and services.